Location: Ebendorf
(52.1827°N, 11.5706°E)
Time: 12:17:36
(UTC+00:00)

Cosmos 1371 Rocket - Pass Details

Date: 15 May 2021
Orbit: 754 x 789 km, 74.0° (Epoch: 20 June)

Event Time Altitude Azimuth Distance (km) Brightness Sun altitude
Exits shadow 01:49:57 13° 200° (SSW) 2,088 5.7 -10.9°
Maximum altitude 01:54:37 84° 114° (ESE) 772 4.0 -10.4°
Drops below altitude 10° 01:59:50 10° 26° (NNE) 2,296 7.9 -9.9°
Sets 02:02:12 0° 26° (NNE) 3,223 9.0 -9.7°
